Location: Hurstbourne Priors
(51.2000°N, 1.3667°W)
Time: 20:05:14
(UTC+00:00)

Transit 4A - Pass Details

Date: 23 April 2021
Orbit: 870 x 974 km, 66.8° (Epoch: 09 May)

Event Time Altitude Azimuth Distance (km) Brightness Sun altitude
Rises 01:22:11 0° 261° (W) 3,605 - -24.0°
Exits shadow 01:25:01 10° 273° (W) 2,682 10.1 -23.8°
Reaches altitude 10° 01:25:08 10° 273° (W) 2,645 10.1 -23.8°
Maximum altitude 01:30:21 28° 331° (NNW) 1,656 9.5 -23.5°
Drops below altitude 10° 01:35:29 10° 30° (NNE) 2,590 11.3 -23.2°
Sets 01:38:21 0° 42° (NE) 3,517 12.2 -23.0°
